Location: Greenspot (historical)
(34.0858°N, 117.1109°W)
Time: 16:20:12
(UTC+00:00)

MINOTAUR IV R/B - Pass Details

Date: 18 April 2024
Orbit: 614 x 635 km, 72.0° (Epoch: 15 May)

Event Time Altitude Azimuth Distance (km) Brightness Sun altitude
Rises 12:23:05 0° 337° (NNW) 2,894 8.0 -10.7°
Reaches altitude 10° 12:25:21 10° 335° (NNW) 1,982 7.1 -10.2°
Maximum altitude 12:29:46 67° 253° (WSW) 668 4.5 -9.4°
Drops below altitude 10° 12:34:08 10° 171° (S) 1,964 7.0 -8.5°
Sets 12:36:22 0° 168° (SSE) 2,865 7.9 -8.1°
